UAL7272 KDEN-KLAX

Flight info

Callsign UAL7272
Flight time 1h 51m
Altitude 38000
Route BAYLR6 TEHRU JASSE Q90 DNERO ANJLL4
Aircraft B752/M-SDE2E3FGHIJ3J4J7RWXY/LB1

Departure

Time 2026-04-21 16:41
Airport Denver International Airport (KDEN)

Arrival

Time 2026-04-21 18:33
Airport Los Angeles International Airport (KLAX)
Time Latitude Longitude Altitude Speed Heading
2026-04-21 16:16 39.85329 -104.67613 5382 ft 0 kts
2026-04-21 16:27 39.85326 -104.67613 5377 ft 2 kts
2026-04-21 16:28 39.85310 -104.67614 5378 ft 2 kts
2026-04-21 16:28 39.85295 -104.67614 5378 ft 2 kts
2026-04-21 16:28 39.85283 -104.67611 5380 ft 1 kts 310°
2026-04-21 16:28 39.85278 -104.67594 5382 ft 1 kts 263°
2026-04-21 16:29 39.85279 -104.67582 5383 ft 1 kts 268°
2026-04-21 16:29 39.85280 -104.67580 5383 ft 0 kts 269°
2026-04-21 16:29 39.85279 -104.67580 5383 ft 0 kts 269°
2026-04-21 16:32 39.85279 -104.67584 5383 ft 3 kts 269°
2026-04-21 16:32 39.85280 -104.67682 5376 ft 18 kts 270°
2026-04-21 16:33 39.85282 -104.67880 5363 ft 25 kts 270°
2026-04-21 16:33 39.85283 -104.68110 5347 ft 24 kts 277°
2026-04-21 16:33 39.85366 -104.68201 5342 ft 12 kts 358°
2026-04-21 16:33 39.85463 -104.68203 5345 ft 17 kts 360°
2026-04-21 16:34 39.85585 -104.68175 5350 ft 16 kts 58°
2026-04-21 16:34 39.85595 -104.68031 5360 ft 16 kts 90°
2026-04-21 16:34 39.85594 -104.67852 5372 ft 25 kts 91°
2026-04-21 16:34 39.85592 -104.67617 5388 ft 23 kts 90°
2026-04-21 16:35 39.85591 -104.67430 5399 ft 18 kts 90°
2026-04-21 16:35 39.85589 -104.67269 5409 ft 18 kts 91°
2026-04-21 16:35 39.85589 -104.67078 5415 ft 24 kts 90°
2026-04-21 16:35 39.85587 -104.66840 5422 ft 28 kts 89°
2026-04-21 16:36 39.85585 -104.66571 5426 ft 30 kts 90°
2026-04-21 16:36 39.85582 -104.66318 5427 ft 20 kts 91°
2026-04-21 16:36 39.85645 -104.66236 5428 ft 16 kts
2026-04-21 16:36 39.85794 -104.66234 5428 ft 28 kts 360°
2026-04-21 16:37 39.86015 -104.66232 5425 ft 34 kts
2026-04-21 16:37 39.86262 -104.66229 5419 ft 35 kts
2026-04-21 16:37 39.86462 -104.66225 5412 ft 18 kts 12°
2026-04-21 16:37 39.86499 -104.66123 5410 ft 13 kts 90°
2026-04-21 16:38 39.86498 -104.66003 5408 ft 13 kts 90°
2026-04-21 16:38 39.86497 -104.65874 5403 ft 15 kts 91°
2026-04-21 16:38 39.86496 -104.65723 5397 ft 17 kts 90°
2026-04-21 16:38 39.86495 -104.65553 5391 ft 19 kts 90°
2026-04-21 16:39 39.86493 -104.65363 5384 ft 22 kts 91°
2026-04-21 16:39 39.86492 -104.65154 5376 ft 24 kts 90°
2026-04-21 16:39 39.86490 -104.64922 5364 ft 27 kts 90°
2026-04-21 16:39 39.86487 -104.64658 5351 ft 30 kts 91°
2026-04-21 16:40 39.86485 -104.64368 5337 ft 28 kts 90°
2026-04-21 16:40 39.86482 -104.64177 5328 ft 16 kts 103°
2026-04-21 16:40 39.86366 -104.64133 5326 ft 28 kts 180°
2026-04-21 16:40 39.85905 -104.64140 5326 ft 106 kts 180°
2026-04-21 16:41 39.84904 -104.64150 5359 ft 174 kts 181°
2026-04-21 16:41 39.83635 -104.64153 5879 ft 197 kts 181°
2026-04-21 16:41 39.82165 -104.64157 6538 ft 223 kts 184°
2026-04-21 16:41 39.80686 -104.64700 7415 ft 231 kts 212°
2026-04-21 16:42 39.79464 -104.66081 8148 ft 239 kts 227°
2026-04-21 16:42 39.78285 -104.67744 8546 ft 265 kts 228°
2026-04-21 16:42 39.77008 -104.69584 9101 ft 283 kts 231°
2026-04-21 16:42 39.76099 -104.71886 9788 ft 293 kts 259°
2026-04-21 16:43 39.76053 -104.74487 10628 ft 297 kts 276°
2026-04-21 16:43 39.76308 -104.77224 11036 ft 319 kts 277°
2026-04-21 16:43 39.76580 -104.80157 11460 ft 338 kts 277°
2026-04-21 16:43 39.76876 -104.83250 12130 ft 348 kts 277°
2026-04-21 16:44 39.77178 -104.86362 12960 ft 351 kts 277°
2026-04-21 16:44 39.77384 -104.89505 13759 ft 354 kts 268°
2026-04-21 16:44 39.76998 -104.92658 14516 ft 359 kts 255°
2026-04-21 16:44 39.76319 -104.95792 15403 ft 361 kts 255°
2026-04-21 16:45 39.75650 -104.98914 16250 ft 364 kts 254°
2026-04-21 16:45 39.74952 -105.02062 17020 ft 368 kts 251°
2026-04-21 16:45 39.74000 -105.05157 17835 ft 371 kts 247°
2026-04-21 16:45 39.73000 -105.08237 18566 ft 376 kts 247°
2026-04-21 16:46 39.71972 -105.11400 19284 ft 381 kts 247°
2026-04-21 16:46 39.70940 -105.14562 19998 ft 385 kts 247°
2026-04-21 16:46 39.69896 -105.17751 20668 ft 390 kts 247°
2026-04-21 16:46 39.68838 -105.20980 21346 ft 394 kts 247°
2026-04-21 16:47 39.67753 -105.24282 22055 ft 397 kts 247°
2026-04-21 16:47 39.66678 -105.27553 22700 ft 402 kts 247°
2026-04-21 16:47 39.65579 -105.30890 23303 ft 407 kts 247°
2026-04-21 16:47 39.64467 -105.34261 23985 ft 409 kts 247°
2026-04-21 16:48 39.63344 -105.37662 24616 ft 413 kts 248°
2026-04-21 16:48 39.62217 -105.41077 25169 ft 417 kts 248°
2026-04-21 16:48 39.61064 -105.44572 25742 ft 421 kts 248°
2026-04-21 16:48 39.59922 -105.48029 26304 ft 424 kts 248°
2026-04-21 16:49 39.58749 -105.51559 26830 ft 427 kts 248°
2026-04-21 16:49 39.57568 -105.55105 27343 ft 431 kts 248°
2026-04-21 16:49 39.56390 -105.58639 27827 ft 435 kts 248°
2026-04-21 16:49 39.55195 -105.62264 28337 ft 437 kts 250°
2026-04-21 16:50 39.54169 -105.65945 28767 ft 441 kts 251°
2026-04-21 16:50 39.53134 -105.69727 29273 ft 444 kts 251°
2026-04-21 16:50 39.52095 -105.73492 29743 ft 446 kts 251°
2026-04-21 16:50 39.51048 -105.77280 30181 ft 450 kts 251°
2026-04-21 16:51 39.49991 -105.81094 30664 ft 451 kts 250°
2026-04-21 16:51 39.48939 -105.84879 31029 ft 455 kts 250°
2026-04-21 16:51 39.47850 -105.88788 31481 ft 457 kts 250°
2026-04-21 16:51 39.46785 -105.92610 31836 ft 460 kts 250°
2026-04-21 16:52 39.45694 -105.96516 32283 ft 461 kts 250°
2026-04-21 16:52 39.44600 -106.00425 32655 ft 463 kts 250°
2026-04-21 16:52 39.43502 -106.04341 33173 ft 461 kts 250°
2026-04-21 16:52 39.42415 -106.08219 33679 ft 459 kts 250°
2026-04-21 16:53 39.41340 -106.12044 34239 ft 457 kts 250°
2026-04-21 16:53 39.40250 -106.15913 34709 ft 456 kts 249°
2026-04-21 16:53 39.39176 -106.19724 35261 ft 454 kts 249°
2026-04-21 16:53 39.38091 -106.23564 35743 ft 453 kts 249°
2026-04-21 16:54 39.37021 -106.27348 36260 ft 450 kts 250°
2026-04-21 16:54 39.35946 -106.31144 36707 ft 449 kts 249°
2026-04-21 16:54 39.34893 -106.34860 37101 ft 448 kts 249°
2026-04-21 16:54 39.33824 -106.38622 37472 ft 448 kts 249°
2026-04-21 16:55 39.32752 -106.42393 37872 ft 447 kts 249°
2026-04-21 16:55 39.31684 -106.46143 38169 ft 447 kts 249°
2026-04-21 16:55 39.30625 -106.49855 38447 ft 446 kts 249°
2026-04-21 16:56 39.28474 -106.57380 38458 ft 445 kts 249°
2026-04-21 16:56 39.26330 -106.64857 38436 ft 451 kts 249°
2026-04-21 16:57 39.23848 -106.72327 38415 ft 454 kts 238°
2026-04-21 16:57 39.20219 -106.78947 38393 ft 452 kts 233°
2026-04-21 16:58 39.16519 -106.85437 38396 ft 452 kts 233°
2026-04-21 16:58 39.12788 -106.91915 38423 ft 452 kts 232°
2026-04-21 16:59 39.09027 -106.98415 38453 ft 452 kts 232°
2026-04-21 16:59 39.05249 -107.04923 38477 ft 453 kts 232°
2026-04-21 17:00 39.01507 -107.11352 38507 ft 452 kts 232°
2026-04-21 17:00 38.97741 -107.17809 38517 ft 452 kts 233°
2026-04-21 17:01 38.93950 -107.24297 38502 ft 451 kts 232°
2026-04-21 17:01 38.90204 -107.30696 38500 ft 452 kts 232°
2026-04-21 17:02 38.86443 -107.37107 38500 ft 452 kts 232°
2026-04-21 17:02 38.82648 -107.43563 38501 ft 452 kts 232°
2026-04-21 17:03 38.78899 -107.49925 38505 ft 450 kts 232°
2026-04-21 17:03 38.75095 -107.56372 38472 ft 450 kts 232°
2026-04-21 17:04 38.71326 -107.62743 38478 ft 451 kts 232°
2026-04-21 17:04 38.67557 -107.69103 38442 ft 450 kts 232°
2026-04-21 17:05 38.63767 -107.75487 38419 ft 450 kts 232°
2026-04-21 17:05 38.59995 -107.81827 38372 ft 451 kts 232°
2026-04-21 17:06 38.56208 -107.88180 38283 ft 449 kts 232°
2026-04-21 17:06 38.52420 -107.94524 38242 ft 450 kts 231°
2026-04-21 17:07 38.48647 -108.00829 38290 ft 448 kts 231°
2026-04-21 17:07 38.44873 -108.07124 38382 ft 449 kts 231°
2026-04-21 17:08 38.41072 -108.13449 38400 ft 450 kts 232°
2026-04-21 17:08 38.37249 -108.19799 38414 ft 456 kts 231°
2026-04-21 17:09 38.31469 -108.29378 38393 ft 455 kts 231°
2026-04-21 17:09 38.27610 -108.35760 38383 ft 455 kts 231°
2026-04-21 17:10 38.23772 -108.42091 38357 ft 454 kts 231°
2026-04-21 17:10 38.19914 -108.48444 38367 ft 456 kts 231°
2026-04-21 17:11 38.15989 -108.54896 38337 ft 462 kts 231°
2026-04-21 17:11 38.12053 -108.61350 38323 ft 463 kts 231°
2026-04-21 17:12 38.08134 -108.67767 38324 ft 463 kts 231°
2026-04-21 17:12 38.04187 -108.74216 38305 ft 463 kts 231°
2026-04-21 17:13 38.00230 -108.80668 38323 ft 464 kts 231°
2026-04-21 17:13 37.96275 -108.87106 38327 ft 462 kts 231°
2026-04-21 17:14 37.92329 -108.93515 38303 ft 462 kts 231°
2026-04-21 17:14 37.88383 -108.99913 38319 ft 463 kts 231°
2026-04-21 17:15 37.84428 -109.06312 38298 ft 462 kts 231°
2026-04-21 17:15 37.80487 -109.12675 38288 ft 462 kts 231°
2026-04-21 17:16 37.76522 -109.19065 38275 ft 462 kts 231°
2026-04-21 17:16 37.72559 -109.25440 38274 ft 461 kts 231°
2026-04-21 17:17 37.68599 -109.31799 38261 ft 461 kts 231°
2026-04-21 17:17 37.64661 -109.38108 38239 ft 461 kts 231°
2026-04-21 17:18 37.60690 -109.44460 38234 ft 460 kts 231°
2026-04-21 17:18 37.56733 -109.50775 38230 ft 459 kts 230°
2026-04-21 17:19 37.52796 -109.57047 38220 ft 460 kts 231°
2026-04-21 17:19 37.48827 -109.63358 38240 ft 462 kts 231°
2026-04-21 17:20 37.44830 -109.69702 38240 ft 459 kts 230°
2026-04-21 17:20 37.40858 -109.75994 38245 ft 461 kts 230°
2026-04-21 17:21 37.36900 -109.82253 38233 ft 460 kts 230°
2026-04-21 17:21 37.32917 -109.88538 38232 ft 458 kts 230°
2026-04-21 17:22 37.28961 -109.94770 38235 ft 458 kts 230°
2026-04-21 17:22 37.24985 -110.01019 38227 ft 457 kts 230°
2026-04-21 17:23 37.21030 -110.07226 38230 ft 459 kts 230°
2026-04-21 17:23 37.17067 -110.13435 38222 ft 459 kts 230°
2026-04-21 17:24 37.13070 -110.19682 38212 ft 459 kts 230°
2026-04-21 17:24 37.09103 -110.25873 38216 ft 457 kts 230°
2026-04-21 17:25 37.05124 -110.32069 38214 ft 457 kts 230°
2026-04-21 17:25 37.01129 -110.38280 38225 ft 457 kts 229°
2026-04-21 17:26 36.97141 -110.44469 38221 ft 457 kts 230°
2026-04-21 17:26 36.93152 -110.50648 38236 ft 458 kts 230°
2026-04-21 17:27 36.89168 -110.56808 38246 ft 456 kts 229°
2026-04-21 17:27 36.85200 -110.62929 38237 ft 455 kts 230°
2026-04-21 17:28 36.81199 -110.69093 38242 ft 456 kts 229°
2026-04-21 17:28 36.77210 -110.75226 38242 ft 456 kts 229°
2026-04-21 17:29 36.73221 -110.81349 38245 ft 455 kts 229°
2026-04-21 17:29 36.69249 -110.87434 38240 ft 455 kts 229°
2026-04-21 17:30 36.65261 -110.93533 38242 ft 453 kts 229°
2026-04-21 17:30 36.61263 -110.99635 38236 ft 457 kts 229°
2026-04-21 17:31 36.57262 -111.05730 38238 ft 454 kts 229°
2026-04-21 17:31 36.53267 -111.11807 38238 ft 454 kts 229°
2026-04-21 17:32 36.49271 -111.17871 38233 ft 456 kts 229°
2026-04-21 17:32 36.45260 -111.23953 38213 ft 455 kts 229°
2026-04-21 17:33 36.41262 -111.29997 38222 ft 456 kts 229°
2026-04-21 17:33 36.37232 -111.36084 38230 ft 456 kts 229°
2026-04-21 17:34 36.33226 -111.42123 38229 ft 455 kts 229°
2026-04-21 17:34 36.29195 -111.48186 38227 ft 456 kts 229°
2026-04-21 17:35 36.25185 -111.54211 38230 ft 456 kts 229°
2026-04-21 17:35 36.21130 -111.60287 38236 ft 457 kts 229°
2026-04-21 17:36 36.17115 -111.66296 38231 ft 456 kts 229°
2026-04-21 17:36 36.13064 -111.72347 38227 ft 457 kts 229°
2026-04-21 17:37 36.09007 -111.78400 38226 ft 457 kts 230°
2026-04-21 17:37 36.05803 -111.85098 38248 ft 460 kts 246°
2026-04-21 17:38 36.03487 -111.92494 38249 ft 461 kts 246°
2026-04-21 17:38 36.01148 -111.99847 38252 ft 458 kts 247°
2026-04-21 17:39 35.98815 -112.07140 38267 ft 460 kts 247°
2026-04-21 17:39 35.96473 -112.14435 38264 ft 458 kts 247°
2026-04-21 17:40 35.94118 -112.21748 38258 ft 458 kts 247°
2026-04-21 17:40 35.91766 -112.29031 38245 ft 455 kts 247°
2026-04-21 17:41 35.89437 -112.36223 38242 ft 455 kts 247°
2026-04-21 17:41 35.87091 -112.43451 38227 ft 455 kts 247°
2026-04-21 17:42 35.84744 -112.50665 38225 ft 452 kts 247°
2026-04-21 17:42 35.82414 -112.57809 38221 ft 450 kts 247°
2026-04-21 17:43 35.80088 -112.64924 38223 ft 449 kts 247°
2026-04-21 17:43 35.77760 -112.72027 38227 ft 449 kts 246°
2026-04-21 17:44 35.75443 -112.79082 38225 ft 446 kts 246°
2026-04-21 17:44 35.73108 -112.86170 38229 ft 446 kts 246°
2026-04-21 17:45 35.70784 -112.93215 38223 ft 445 kts 246°
2026-04-21 17:45 35.68469 -113.00212 38222 ft 444 kts 247°
2026-04-21 17:46 35.66150 -113.07205 38221 ft 442 kts 247°
2026-04-21 17:46 35.63831 -113.14182 38207 ft 441 kts 247°
2026-04-21 17:47 35.61512 -113.21143 38203 ft 440 kts 248°
2026-04-21 17:47 35.59188 -113.28100 38188 ft 440 kts 248°
2026-04-21 17:48 35.56871 -113.35024 38179 ft 440 kts 248°
2026-04-21 17:48 35.54548 -113.41949 38161 ft 437 kts 248°
2026-04-21 17:49 35.52243 -113.48804 38156 ft 438 kts 248°
2026-04-21 17:49 35.49921 -113.55695 38148 ft 436 kts 248°
2026-04-21 17:50 35.47617 -113.62517 38138 ft 436 kts 248°
2026-04-21 17:50 35.45296 -113.69373 38152 ft 437 kts 248°
2026-04-21 17:51 35.42960 -113.76257 38132 ft 435 kts 248°
2026-04-21 17:51 35.40647 -113.83058 38125 ft 438 kts 248°
2026-04-21 17:52 35.38298 -113.89951 38098 ft 435 kts 248°
2026-04-21 17:52 35.35976 -113.96749 38091 ft 437 kts 248°
2026-04-21 17:53 35.33639 -114.03580 38088 ft 435 kts 248°
2026-04-21 17:53 35.31300 -114.10399 38073 ft 434 kts 248°
2026-04-21 17:54 35.28976 -114.17152 38071 ft 432 kts 248°
2026-04-21 17:54 35.26643 -114.23927 38070 ft 436 kts 248°
2026-04-21 17:55 35.24294 -114.30727 38048 ft 433 kts 248°
2026-04-21 17:55 35.21945 -114.37514 38017 ft 433 kts 248°
2026-04-21 17:56 35.19610 -114.44248 38010 ft 434 kts 248°
2026-04-21 17:56 35.17258 -114.51012 37983 ft 432 kts 248°
2026-04-21 17:57 35.14914 -114.57745 37992 ft 432 kts 248°
2026-04-21 17:57 35.12561 -114.64499 38015 ft 431 kts 248°
2026-04-21 17:58 35.10222 -114.71229 38050 ft 431 kts 248°
2026-04-21 17:58 35.07892 -114.77927 38056 ft 430 kts 247°
2026-04-21 17:59 35.05555 -114.84627 38053 ft 431 kts 248°
2026-04-21 17:59 35.03171 -114.91318 38049 ft 430 kts 244°
2026-04-21 18:00 35.00373 -114.97755 38046 ft 431 kts 243°
2026-04-21 18:00 34.97578 -115.04190 38037 ft 431 kts 243°
2026-04-21 18:01 34.94782 -115.10624 38043 ft 429 kts 243°
2026-04-21 18:01 34.92011 -115.16993 38040 ft 424 kts 243°
2026-04-21 18:02 34.89243 -115.23349 38042 ft 427 kts 243°
2026-04-21 18:02 34.86462 -115.29716 38032 ft 422 kts 243°
2026-04-21 18:03 34.83720 -115.35989 38034 ft 423 kts 243°
2026-04-21 18:03 34.80947 -115.42316 38040 ft 421 kts 243°
2026-04-21 18:04 34.78327 -115.48655 38040 ft 421 kts 248°
2026-04-21 18:04 34.75985 -115.55084 38037 ft 417 kts 247°
2026-04-21 18:05 34.73642 -115.61461 38039 ft 412 kts 247°
2026-04-21 18:05 34.71305 -115.67805 38052 ft 409 kts 246°
2026-04-21 18:06 34.68995 -115.74061 38047 ft 403 kts 246°
2026-04-21 18:06 34.66694 -115.80277 38039 ft 404 kts 246°
2026-04-21 18:07 34.64373 -115.86533 38018 ft 404 kts 246°
2026-04-21 18:07 34.62093 -115.92702 38015 ft 403 kts 247°
2026-04-21 18:08 34.59788 -115.98961 37501 ft 410 kts 246°
2026-04-21 18:08 34.58619 -116.02129 36902 ft 409 kts 246°
2026-04-21 18:08 34.57475 -116.05226 36325 ft 404 kts 246°
2026-04-21 18:09 34.56331 -116.08319 35771 ft 400 kts 246°
2026-04-21 18:09 34.55187 -116.11414 35247 ft 402 kts 246°
2026-04-21 18:09 34.54035 -116.14520 34733 ft 406 kts 246°
2026-04-21 18:09 34.52866 -116.17673 34239 ft 409 kts 246°
2026-04-21 18:10 34.51699 -116.20815 33723 ft 410 kts 246°
2026-04-21 18:10 34.50536 -116.23946 33220 ft 412 kts 245°
2026-04-21 18:10 34.49345 -116.27157 32672 ft 417 kts 245°
2026-04-21 18:10 34.48143 -116.30382 32032 ft 423 kts 244°
2026-04-21 18:11 34.46939 -116.33614 31278 ft 425 kts 244°
2026-04-21 18:11 34.45728 -116.36861 30520 ft 420 kts 244°
2026-04-21 18:11 34.44534 -116.40064 30046 ft 409 kts 243°
2026-04-21 18:11 34.43373 -116.43171 29788 ft 405 kts 243°
2026-04-21 18:12 34.42201 -116.46300 29397 ft 411 kts 243°
2026-04-21 18:12 34.40989 -116.49406 29241 ft 410 kts 241°
2026-04-21 18:12 34.39674 -116.52581 28438 ft 425 kts 241°
2026-04-21 18:12 34.38356 -116.55773 27657 ft 426 kts 242°
2026-04-21 18:13 34.37056 -116.58930 26873 ft 419 kts 241°
2026-04-21 18:13 34.35761 -116.62070 26391 ft 406 kts 241°
2026-04-21 18:13 34.34511 -116.65099 26124 ft 405 kts 240°
2026-04-21 18:13 34.33243 -116.68175 25892 ft 414 kts 241°
2026-04-21 18:14 34.30694 -116.74515 24563 ft 416 kts 242°
2026-04-21 18:14 34.29453 -116.77610 23877 ft 405 kts 241°
2026-04-21 18:14 34.28221 -116.80670 23193 ft 400 kts 241°
2026-04-21 18:15 34.27010 -116.83675 22532 ft 398 kts 241°
2026-04-21 18:15 34.25796 -116.86684 21895 ft 395 kts 241°
2026-04-21 18:15 34.24615 -116.89610 21269 ft 391 kts 241°
2026-04-21 18:15 34.23430 -116.92537 20634 ft 387 kts 242°
2026-04-21 18:16 34.22270 -116.95411 19996 ft 383 kts 241°
2026-04-21 18:16 34.21168 -116.98285 19389 ft 380 kts 246°
2026-04-21 18:16 34.20323 -117.01324 18848 ft 378 kts 248°
2026-04-21 18:16 34.19508 -117.04282 18407 ft 377 kts 248°
2026-04-21 18:17 34.18680 -117.07319 17997 ft 376 kts 249°
2026-04-21 18:17 34.17870 -117.10299 17598 ft 374 kts 249°
2026-04-21 18:17 34.17056 -117.13290 17218 ft 373 kts 248°
2026-04-21 18:17 34.16246 -117.16262 16872 ft 373 kts 248°
2026-04-21 18:18 34.15426 -117.19241 16523 ft 369 kts 248°
2026-04-21 18:18 34.14621 -117.22168 16177 ft 368 kts 248°
2026-04-21 18:18 34.13813 -117.25102 15826 ft 366 kts 248°
2026-04-21 18:18 34.13014 -117.28002 15476 ft 367 kts 248°
2026-04-21 18:19 34.12203 -117.30943 15129 ft 365 kts 248°
2026-04-21 18:19 34.11406 -117.33830 14780 ft 363 kts 248°
2026-04-21 18:19 34.10611 -117.36713 14432 ft 361 kts 248°
2026-04-21 18:19 34.09872 -117.39616 14076 ft 361 kts 250°
2026-04-21 18:20 34.09156 -117.42489 13701 ft 358 kts 249°
2026-04-21 18:20 34.08456 -117.45299 13196 ft 340 kts 249°
2026-04-21 18:20 34.07791 -117.47961 12690 ft 322 kts 249°
2026-04-21 18:20 34.07119 -117.50452 12187 ft 306 kts 244°
2026-04-21 18:21 34.06274 -117.52785 11709 ft 297 kts 243°
2026-04-21 18:21 34.05455 -117.55040 11214 ft 295 kts 244°
2026-04-21 18:21 34.04649 -117.57272 10781 ft 290 kts 244°
2026-04-21 18:21 34.03841 -117.59513 10330 ft 284 kts 244°
2026-04-21 18:22 34.03068 -117.61658 9917 ft 276 kts 244°
2026-04-21 18:22 34.02303 -117.63779 9497 ft 273 kts 244°
2026-04-21 18:22 34.01553 -117.65854 9091 ft 271 kts 244°
2026-04-21 18:22 34.00845 -117.67931 8883 ft 259 kts 252°
2026-04-21 18:23 34.00554 -117.70059 8740 ft 258 kts 259°
2026-04-21 18:23 34.00328 -117.72248 8604 ft 267 kts 259°
2026-04-21 18:23 34.00100 -117.74464 8453 ft 267 kts 259°
2026-04-21 18:23 33.99878 -117.76683 8301 ft 266 kts 260°
2026-04-21 18:24 33.99655 -117.78916 8154 ft 265 kts 260°
2026-04-21 18:24 33.99436 -117.81125 8001 ft 265 kts 260°
2026-04-21 18:24 33.99221 -117.83318 7851 ft 265 kts 260°
2026-04-21 18:24 33.99004 -117.85543 7699 ft 265 kts 260°
2026-04-21 18:25 33.98791 -117.87732 7551 ft 266 kts 260°
2026-04-21 18:25 33.98575 -117.89944 7399 ft 264 kts 260°
2026-04-21 18:25 33.98357 -117.92156 7216 ft 263 kts 260°
2026-04-21 18:25 33.98149 -117.94282 6979 ft 253 kts 261°
2026-04-21 18:26 33.97946 -117.96357 6744 ft 247 kts 261°
2026-04-21 18:26 33.97752 -117.98388 6514 ft 242 kts 261°
2026-04-21 18:26 33.97557 -118.00397 6221 ft 238 kts 261°
2026-04-21 18:26 33.97366 -118.02357 5918 ft 232 kts 261°
2026-04-21 18:27 33.97178 -118.04282 5629 ft 228 kts 261°
2026-04-21 18:27 33.96994 -118.06150 5339 ft 223 kts 261°
2026-04-21 18:27 33.96811 -118.07990 5065 ft 218 kts 261°
2026-04-21 18:27 33.96633 -118.09773 4776 ft 217 kts 261°
2026-04-21 18:28 33.96447 -118.11613 4488 ft 221 kts 261°
2026-04-21 18:28 33.96320 -118.12865 4287 ft 222 kts 261°
2026-04-21 18:28 33.96131 -118.14738 3980 ft 221 kts 261°
2026-04-21 18:28 33.95947 -118.16587 3678 ft 222 kts 261°
2026-04-21 18:29 33.95761 -118.18436 3358 ft 220 kts 261°
2026-04-21 18:29 33.95579 -118.20243 3095 ft 218 kts 261°
2026-04-21 18:29 33.95394 -118.22066 2811 ft 217 kts 261°
2026-04-21 18:29 33.95213 -118.23846 2509 ft 217 kts 261°
2026-04-21 18:30 33.95027 -118.25678 2199 ft 217 kts 261°
2026-04-21 18:30 33.94848 -118.27449 1864 ft 211 kts 261°
2026-04-21 18:30 33.94674 -118.29168 1590 ft 201 kts 261°
2026-04-21 18:30 33.94507 -118.30808 1393 ft 191 kts 261°
2026-04-21 18:31 33.94349 -118.32355 1097 ft 178 kts 261°
2026-04-21 18:31 33.94205 -118.33762 872 ft 162 kts 261°
2026-04-21 18:31 33.94073 -118.35045 658 ft 146 kts 261°
2026-04-21 18:31 33.93951 -118.36223 463 ft 141 kts 261°
2026-04-21 18:32 33.93827 -118.37388 286 ft 140 kts 261°
2026-04-21 18:32 33.93712 -118.38520 109 ft 128 kts 261°
2026-04-21 18:32 33.93624 -118.39365 110 ft 71 kts 263°
2026-04-21 18:32 33.93578 -118.39825 115 ft 50 kts 263°
2026-04-21 18:33 33.93565 -118.40120 121 ft 29 kts 276°
2026-04-21 18:33 33.93618 -118.40346 122 ft 27 kts 290°
2026-04-21 18:33 33.93614 -118.40565 127 ft 25 kts 262°
2026-04-21 18:33 33.93595 -118.40775 127 ft 25 kts 272°
2026-04-21 18:34 33.93670 -118.40897 128 ft 18 kts 352°
2026-04-21 18:34 33.93776 -118.40908 128 ft 7 kts 34°
2026-04-21 18:34 33.93795 -118.40831 128 ft 13 kts 83°
2026-04-21 18:34 33.93810 -118.40669 128 ft 24 kts 83°
2026-04-21 18:35 33.93833 -118.40434 124 ft 31 kts 84°
2026-04-21 18:35 33.93860 -118.40179 122 ft 27 kts 83°
2026-04-21 18:35 33.93896 -118.40058 120 ft 10 kts 13°
2026-04-21 18:35 33.93975 -118.40065 120 ft 11 kts 353°
2026-04-21 18:36 33.94075 -118.40080 119 ft 17 kts 353°
2026-04-21 18:36 33.94121 -118.40072 119 ft 4 kts 91°
2026-04-21 18:36 33.94116 -118.40031 119 ft 0 kts 97°